Regional Weather Roundup
Issued by NWS Midland/Odessa, TX

Home | Current Version | Previous Version | Text Only | Print | Product List | Glossary On
Versions: 1 2 3 4 5 6 7 8 9 10 11 12 13 14 15 16 17 18 19 20 21 22 23 24 25 26 27 28 29 30 31 32 33 34 35 36 37 38 39 40 41 42 43 44 45 46 47 48 49 50
000
ASUS44 KMAF 250810
RWRMAF
MIDLAND AREA WEATHER ROUNDUP
NATIONAL WEATHER SERVICE MIDLAND TX
300 AM CDT FRI APR 25 2014

...IN SOUTHWEST TEXAS AND SOUTHEAST NEW MEXICO...

CITY           SKY/WX    TMP DP  RH WIND       PRES   REMARKS
ALPINE         CLEAR     63  21  20 S5        30.10F
ANDREWS        FAIR      60  30  31 S9        29.98S
ARTESIA        CLEAR     54  25  32 S12       29.96F
BIG SPRING     CLEAR     61  29  30 SE7       29.98S
CARLSBAD       CLEAR     60  22  23 S12       29.96F
DRYDEN           N/A     63  30  28 E3        29.95S
FORT STOCKTON  CLEAR     61  27  27 S9        29.97F
GUAD PASS      CLEAR     59  16  18 NE10      30.08F
HOBBS          CLEAR     55  25  30 S6        30.00F
MARFA          CLEAR     45  12  26 N6        30.10S
MIDLAND AIRPK  CLEAR     63  29  28 S9        29.97F
MIDLAND INTL   CLEAR     58  31  35 SE7       29.97F
ODESSA         CLEAR     62  28  27 MISG      29.98F
PECOS          PTCLDY    53  39  58 CALM      29.95F
PRESIDIO       FAIR      72  20  14 N5        29.95S
SEMINOLE       CLEAR     56  31  37 CALM      30.00S
SNYDER         CLEAR     57  29  33 E7        29.97S
WINK           PTCLDY    56  32  40 E3        29.96R
$$
...OTHER STATIONS IN TEXAS...

CITY           SKY/WX    TMP DP  RH WIND       PRES   REMARKS
ABILENE        CLEAR     56  39  53 SE8       29.96F
AMARILLO       CLEAR     53  20  27 S16       29.96F
AUSTIN         CLEAR     60  59  96 CALM      29.93F
BROWNSVILLE    CLOUDY    73  72  96 E3        29.86F
CORPUS CHRISTI PTCLDY    73  70  90 S3        29.89F
DALLAS FTW     PTCLDY    62  41  46 E5        29.94F
DEL RIO        CLEAR     72  33  24 E8        29.89F
EL PASO        CLEAR     64  20  18 S7        29.97S
HOUSTON INT    MOCLDY    70  68  93 CALM      29.91F
LUBBOCK        CLEAR     54  25  32 SE9       29.97S
SAN ANGELO     CLEAR     53  30  41 NE6       29.97R
SAN ANTONIO    PTCLDY    72  68  87 CALM      29.93S
WACO           CLEAR     53  45  74 CALM      29.94S
WICHITA FALLS  NOT AVBL
$$
...OTHER LOCATIONS IN NEW MEXICO...

CITY           SKY/WX    TMP DP  RH WIND       PRES   REMARKS
ALAMAGORDO     CLEAR     54  10  17 CALM      29.99S
ALBUQUERQUE    CLEAR     52   6  15 NE8       30.02S
CANNON AFB     CLEAR     51  25  35 S6        30.00F
CLOVIS         CLEAR     45  25  45 S10       30.02F WCI  39
HOLLOMAN AFB   CLEAR     57  15  19 S6        29.98S
ROSWELL        CLEAR     53  22  29 SW6       29.96S
RUIDOSO        CLEAR     54   7  15 SW6       30.12F
SANTA FE       CLEAR     43  -3  14 NE10      30.05S WCI  37
TRUTH OR CONSE CLEAR     55  13  18 W8        29.99S
TUCUMCARI      CLEAR     56  20  24 VRB5      29.95R
$$



USA.gov is the U.S. government's official web portal to all federal, state and local government web resources and services.